Theta_e
290 285 282 285 285 283 281 279 278 280 285 284 285 286 289 289 286 288 288 287 288 286 293 298 301 301 301 301 301 301 299 297 296 293 293 293 294 295 296 298 299 300 301 301
287 283 287 287 288 285 283 280 280 283 285 284 283 285 287 288 287 288 289 288 287 293 296 298 298 299 300 300 300 299 298 296 296 294 293 293 294 294 296 297 299 300 300 301
283 284 289 286 285 283 282 281 281 281 283 282 282 282 285 286 287 287 287 287 290 294 296 296 297 297 298 298 299 299 298 297 295 294 295 295 295 295 295 296 297 298 300 300
285 287 286 284 283 284 279 285 284 283 281 277 280 276 282 283 285 287 286 288 291 295 295 296 296 296 298 298 298 298 297 296 294 295 294 294 292 292 294 295 296 297 299 299
283 285 284 283 284 286 282 285 284 283 281 279 278 276 281 282 285 287 287 287 291 294 296 297 297 298 298 297 297 296 295 294 293 293 293 293 292 293 294 294 294 295 297 299
284 287 286 285 285 286 287 285 283 281 280 272 279 278 279 282 285 285 286 287 288 291 294 296 297 297 296 295 295 294 292 291 291 292 293 293 293 293 293 293 293 294 295 297
283 284 285 287 284 286 284 281 271 271 268 272 278 276 281 283 287 287 288 287 287 289 292 294 294 294 294 293 293 293 291 290 290 291 292 293 292 293 293 293 293 293 294 295
279 276 284 287 285 283 282 282 276 271 270 274 278 276 282 285 286 288 287 288 288 288 291 293 294 294 294 293 292 292 291 290 290 291 292 292 293 293 293 294 293 293 293 294
279 280 285 285 287 288 284 280 283 276 269 274 277 280 285 285 284 285 286 287 288 289 290 292 293 294 293 292 292 291 290 290 290 291 291 292 292 293 293 293 293 293 294 296
284 280 283 285 287 286 283 286 279 277 269 270 274 277 281 282 284 284 285 286 287 289 290 291 293 293 293 292 292 291 291 291 290 290 291 292 292 293 293 293 293 294 294 296
287 284 280 284 282 282 282 280 281 282 279 274 271 277 284 285 285 284 285 287 287 288 289 290 292 293 293 293 292 291 291 290 290 290 290 291 292 293 293 293 294 294 295 297
290 284 278 280 284 286 283 283 283 280 277 275 276 278 285 286 285 285 285 288 287 287 288 289 291 292 292 292 292 292 291 290 290 290 290 291 292 292 292 293 294 295 295 297
290 283 278 279 283 284 281 283 283 283 282 277 276 279 286 284 285 286 287 288 288 289 288 287 287 289 290 291 291 291 291 290 290 289 289 290 291 291 292 293 294 295 295 296
293 284 284 281 282 283 279 280 283 283 280 279 279 279 282 283 284 286 287 288 288 288 288 288 288 287 288 289 290 290 290 290 290 289 289 289 290 291 293 293 294 294 295 296
290 282 284 280 283 284 283 283 282 281 284 283 284 280 284 286 286 286 287 288 287 284 284 287 287 287 287 288 288 288 289 290 289 289 288 289 291 292 293 293 293 294 295 297
289 281 283 282 280 282 280 282 284 284 283 284 278 278 286 288 288 286 287 288 287 286 285 285 286 286 286 282 287 288 287 288 289 288 288 289 290 291 291 292 292 294 295 296
287 282 283 281 281 282 280 282 282 283 285 286 280 286 287 286 287 287 287 288 288 287 287 286 286 285 285 285 286 286 287 288 288 288 288 289 290 290 290 291 292 293 295 297
286 283 283 275 281 275 285 286 289 285 286 287 285 287 289 289 291 290 291 290 288 288 287 286 285 285 285 285 284 286 287 287 288 288 288 288 289 289 289 289 291 293 294 296
290 284 278 276 273 280 282 282 283 283 285 288 288 288 288 287 288 286 289 290 289 288 288 286 286 285 284 284 285 286 285 286 287 287 287 288 288 288 288 289 290 292 293 295
290 290 283 277 275 273 282 284 287 288 281 289 290 289 286 288 284 285 289 290 289 288 287 285 285 284 284 284 285 285 284 285 284 285 286 287 288 288 288 288 289 289 293 292
282 283 280 278 270 277 284 284 287 279 283 288 290 290 289 288 289 291 290 287 288 287 286 285 284 283 283 284 284 283 283 282 283 285 286 286 287 287 288 289 288 289 291 289
281 280 278 277 268 274 284 283 283 287 285 287 290 291 291 289 290 290 289 287 287 286 285 285 284 282 282 284 284 283 282 283 284 284 284 284 284 285 286 287 287 288 289 289
279 283 278 280 282 284 288 285 287 287 287 286 289 291 292 289 289 289 287 286 285 285 283 283 282 280 278 283 284 283 282 284 284 284 284 284 285 285 285 286 286 287 286 286
281 283 280 280 284 283 286 286 287 289 287 286 289 290 290 288 288 288 287 285 283 282 281 278 278 277 275 277 281 283 284 285 285 285 284 285 285 285 286 285 285 286 286 285
280 282 276 278 281 283 283 285 289 287 286 287 288 289 289 288 288 287 285 283 282 280 277 276 276 274 272 271 275 280 282 279 283 285 285 284 285 285 284 284 285 285 286 287
279 280 282 281 284 285 285 287 288 287 286 287 286 285 286 288 286 285 283 281 280 277 275 275 273 273 271 271 270 272 280 278 278 280 279 281 285 285 285 285 285 288 289 290
Wind_Speed
2 4 10 16 5 2 3 3 2 3 1 2 7 9 13 11 6 10 7 9 8 5 2 4 6 7 9 8 11 9 10 7 7 3 3 2 2 1 0 1 2 3 3 4
3 11 8 6 7 5 1 1 4 3 1 2 4 14 11 9 6 4 5 7 4 6 5 5 6 5 5 10 9 9 7 7 5 3 3 2 2 1 1 0 2 2 3 3
7 4 10 7 5 8 4 6 3 3 3 1 6 10 4 1 2 2 1 1 3 7 8 6 6 6 7 8 9 8 8 7 5 5 4 3 3 2 1 1 1 2 3 4
6 4 5 4 6 7 5 10 7 1 4 4 3 7 6 2 5 3 3 3 5 7 5 5 6 6 7 6 6 7 7 7 5 6 3 3 3 2 2 2 1 2 3 3
10 8 6 6 7 8 6 5 7 4 4 1 2 1 10 2 6 7 7 6 5 6 7 8 8 7 6 7 7 6 7 7 6 5 5 4 3 1 1 0 1 2 3 3
5 1 5 5 2 10 8 7 8 5 3 2 7 8 7 6 7 3 4 6 8 7 6 6 5 7 6 6 6 6 7 5 6 5 5 6 5 4 3 1 1 2 1 2
1 4 2 3 7 4 2 6 4 4 4 7 2 3 9 4 5 5 8 8 8 8 8 8 8 7 7 8 7 6 7 6 6 6 5 5 5 5 5 3 2 2 1 2
9 5 10 6 6 9 7 8 9 9 6 3 2 9 9 5 5 3 3 7 7 8 7 8 8 8 8 8 8 8 7 6 7 6 5 4 4 3 3 3 2 2 1 2
10 8 1 1 4 9 7 8 4 8 2 3 6 8 10 5 4 4 5 6 8 8 8 9 8 8 8 7 8 9 8 6 7 7 5 4 4 4 4 3 2 1 2 2
7 4 1 2 2 1 5 7 4 2 4 4 5 6 7 6 10 8 7 8 7 6 7 7 7 7 6 6 6 7 7 8 6 6 5 4 4 4 4 3 3 3 2 2
4 3 1 5 7 9 4 4 3 4 5 7 2 9 8 8 9 10 8 7 7 7 7 7 7 6 7 5 6 7 6 7 6 6 6 5 5 5 4 4 3 3 2 2
6 5 4 4 2 2 3 6 7 6 7 2 3 9 1 5 7 10 8 7 4 5 6 6 6 7 7 7 6 7 6 7 7 6 6 6 6 5 5 4 4 3 3 2
15 6 5 3 6 2 5 5 4 4 3 8 8 9 4 2 7 5 9 7 5 5 5 3 5 6 6 6 6 6 6 7 6 6 6 6 5 5 6 5 4 4 3 2
17 3 11 14 8 14 11 8 7 4 4 5 9 3 3 5 8 8 7 7 6 5 5 4 5 4 3 4 6 6 6 6 6 6 6 6 6 6 6 5 4 3 3 2
13 13 13 4 4 9 8 14 11 9 18 12 14 9 8 14 14 11 8 7 7 4 3 4 4 4 3 2 1 2 4 5 5 6 6 6 6 6 5 4 4 4 4 4
5 3 7 7 1 2 2 7 17 23 17 13 2 7 6 5 7 7 9 9 8 7 6 4 4 4 3 2 3 3 3 4 6 6 7 6 6 6 6 6 5 5 4 4
11 5 8 7 7 6 4 21 17 17 22 25 19 10 5 5 10 13 11 11 10 9 7 7 5 3 2 2 2 3 3 3 6 7 6 6 6 6 6 5 5 5 5 3
19 9 2 4 9 8 11 5 19 24 16 23 8 10 13 10 16 7 10 11 10 9 8 6 5 4 2 0 0 2 2 3 4 4 5 5 6 6 6 6 6 4 4 5
14 10 5 7 4 4 5 9 12 15 21 20 27 13 7 7 6 1 6 6 8 7 7 6 5 3 3 3 2 4 5 4 5 5 5 5 5 4 4 4 4 3 3 3
14 15 9 5 7 10 8 6 10 9 14 21 25 21 12 12 9 5 11 9 9 8 6 7 6 5 6 4 5 7 6 6 6 4 2 4 5 5 6 5 5 3 2 3
9 12 15 7 3 8 7 9 9 9 10 12 25 19 19 15 5 12 16 8 9 8 9 7 7 6 5 5 6 8 7 6 4 3 3 4 3 2 3 4 3 4 3 2
14 10 6 6 4 9 9 8 16 7 2 6 16 23 21 10 16 22 18 16 15 14 10 7 9 7 5 6 6 9 9 4 4 6 6 5 5 3 2 2 2 0 2 2
5 9 10 10 8 2 18 1 6 2 5 4 9 12 17 19 18 21 19 16 13 12 10 6 9 9 6 7 6 8 3 5 6 7 6 4 4 4 3 3 1 0 1 1
1 1 6 5 7 6 17 3 2 2 3 5 6 13 18 20 22 21 17 15 14 11 11 7 9 9 7 5 8 8 6 6 7 8 6 5 5 4 4 2 1 1 0 0
5 7 7 5 2 3 4 3 5 3 6 11 9 12 16 21 18 21 17 16 13 11 7 6 8 8 6 3 6 6 6 3 6 7 6 4 5 5 4 2 1 1 2 2
6 9 8 9 7 5 7 12 8 9 8 15 17 11 9 19 20 19 15 12 13 12 9 8 7 8 5 5 6 5 5 4 3 5 3 3 4 3 4 4 4 3 4 7
Wind_Direction
206 156 195 201 183 100 133 204 250 226 209 216 239 265 273 279 234 264 260 267 269 238 60 106 111 114 115 122 131 144 140 142 133 118 117 107 160 139 52 301 331 360 344 355
89 244 207 172 187 206 20 323 264 280 208 201 324 283 257 258 246 240 287 282 211 141 120 111 112 112 134 143 140 136 139 146 146 122 136 141 157 162 147 285 307 326 336 350
176 224 180 159 158 180 211 193 225 245 336 258 330 290 296 230 160 187 29 49 137 161 147 137 125 128 128 139 149 146 145 145 140 128 111 88 71 66 66 352 299 316 335 352
252 231 136 180 201 148 213 199 173 227 39 247 18 279 297 232 271 234 178 147 153 145 128 131 135 142 148 144 132 131 140 146 147 150 131 143 154 161 196 177 244 318 337 353
229 182 166 175 209 172 220 133 169 141 137 15 248 13 272 333 259 223 204 188 179 168 156 160 160 151 144 143 151 147 141 145 148 154 158 145 149 147 127 151 273 314 318 350
223 219 191 198 130 171 159 81 53 57 84 315 205 169 265 204 216 181 172 190 181 171 166 157 144 134 139 142 142 149 150 153 157 158 161 157 165 166 148 181 257 289 303 318
158 210 230 165 97 68 112 100 13 356 9 224 350 180 248 228 219 197 191 192 185 178 168 165 163 164 159 164 163 159 163 165 167 170 174 168 177 180 175 184 200 244 312 319
177 273 164 183 184 171 190 167 162 194 195 215 99 231 246 218 205 214 145 170 162 177 178 177 179 174 176 172 168 167 173 171 175 179 186 167 176 189 185 181 189 237 258 283
161 233 83 81 148 144 198 214 152 103 28 63 209 283 289 196 209 202 174 160 180 184 185 181 179 182 181 177 179 175 176 188 183 177 178 177 176 181 197 192 174 226 266 277
201 120 320 138 137 55 173 157 99 4 144 244 275 279 244 215 207 204 187 193 191 187 184 183 186 183 184 185 175 173 181 192 184 177 178 176 192 195 195 186 187 215 258 282
151 105 163 131 211 175 157 180 192 139 165 174 198 255 217 223 186 185 195 191 189 190 193 189 188 184 181 170 177 186 185 185 187 182 173 178 195 196 189 200 191 206 218 255
180 107 149 181 210 208 304 220 171 170 221 237 153 264 338 264 192 163 177 164 141 169 186 188 186 174 175 184 185 196 191 192 199 185 176 191 187 186 196 211 212 186 226 247
175 180 114 47 349 19 236 206 223 114 85 196 153 256 360 86 138 164 153 159 152 141 130 136 149 175 186 189 195 204 202 204 194 176 179 186 185 189 209 209 218 179 207 231
150 159 195 203 191 145 185 198 207 177 172 184 224 223 235 208 175 171 164 159 159 150 143 135 128 140 153 185 199 206 217 205 185 178 184 189 185 195 205 194 213 201 183 210
168 208 207 54 335 153 170 191 181 203 234 206 234 204 224 202 195 182 165 152 152 155 156 156 146 130 130 130 148 220 235 209 178 182 184 199 185 187 190 190 202 215 187 188
180 188 148 210 57 290 161 189 192 207 220 247 89 283 251 146 101 166 173 164 167 174 180 178 148 149 155 200 189 198 206 206 172 182 200 179 180 182 186 184 192 206 208 199
170 140 166 196 138 97 267 219 199 208 216 218 223 194 167 154 184 195 180 172 170 171 171 174 169 168 189 213 233 248 240 205 188 181 174 178 179 186 186 183 182 202 212 206
171 159 144 119 130 202 235 187 200 205 209 216 221 179 180 194 197 160 169 172 159 158 158 156 153 153 147 153 146 251 217 203 178 173 170 172 173 183 176 171 191 199 213 211
182 161 124 159 206 308 243 199 164 177 237 214 215 197 176 115 88 48 145 150 154 152 147 141 143 134 104 72 63 95 79 103 125 146 157 167 170 167 162 180 194 199 201 235
185 185 160 174 164 195 224 200 139 93 269 202 200 197 144 144 176 213 164 139 129 119 123 128 111 95 84 53 90 87 75 75 66 62 116 150 160 167 176 180 178 180 185 237
172 176 184 179 176 270 214 152 147 128 243 195 187 170 163 187 186 140 134 113 122 123 125 113 94 92 73 70 83 78 72 53 2 14 80 90 107 150 176 168 174 165 178 236
162 162 165 129 113 257 150 127 173 212 67 175 176 176 177 139 136 137 135 135 135 132 128 118 108 87 59 62 82 83 68 26 28 57 57 50 36 40 84 134 133 153 165 178
156 177 166 186 202 166 181 86 208 261 131 186 178 166 149 137 143 140 137 135 136 133 126 109 109 96 51 59 57 84 48 71 82 80 71 58 55 48 36 87 158 231 133 170
276 155 135 96 217 187 193 250 217 179 132 126 116 132 143 141 144 137 137 135 133 131 126 121 111 95 82 65 80 77 72 80 85 81 68 61 65 51 38 27 40 94 146 197
190 135 156 256 196 100 200 216 149 82 100 95 97 139 141 137 142 136 138 135 133 124 107 102 111 106 94 78 79 66 58 39 88 82 75 69 59 49 38 18 344 326 277 204
187 174 179 224 149 150 186 185 148 141 158 140 129 115 131 141 137 135 130 130 128 122 118 109 94 98 89 78 67 40 46 35 60 79 51 46 48 47 42 23 7 332 308 292